• Em Portugal
  • Lista de países
  • Para 7 dias
  • Temperatura da água
  • Mapas de satélite
  • Mapa do tempo
  • Widgets de tempo
  • user-avatar
    Iniciar Sessão

    Previsão horária em Akaba

    Hoje, 23 Janeiro, Terça-feira

    Tempo Temperatura Precipitação Vento Pressão Humidade
    00:00 +16°C° 0 mm 3 m/s 748 mmHg 39%
    01:00 +14°C° 0 mm 3 m/s 748 mmHg 43%
    02:00 +15°C° 0 mm 2 m/s 748 mmHg 45%
    03:00 +14°C° 0 mm 3 m/s 748 mmHg 49%
    04:00 +13°C° 0 mm 3 m/s 748 mmHg 53%
    05:00 +13°C° 0 mm 3 m/s 749 mmHg 58%
    06:00 +14°C° 0 mm 3 m/s 749 mmHg 59%
    07:00 +14°C° 0 mm 3 m/s 749 mmHg 59%
    08:00 +16°C° 0 mm 3 m/s 749 mmHg 58%
    09:00 +17°C° 0 mm 3 m/s 748 mmHg 55%
    10:00 +18°C° 0 mm 4 m/s 748 mmHg 51%
    11:00 +20°C° 0 mm 4 m/s 748 mmHg 48%
    12:00 +20°C° 0 mm 5 m/s 748 mmHg 46%
    13:00 +20°C° 0 mm 5 m/s 748 mmHg 44%
    14:00 +21°C° 0 mm 5 m/s 747 mmHg 42%
    15:00 +21°C° 0 mm 5 m/s 748 mmHg 44%
    16:00 +20°C° 0 mm 4 m/s 748 mmHg 47%
    17:00 +19°C° 0 mm 4 m/s 749 mmHg 49%
    18:00 +18°C° 0 mm 3 m/s 749 mmHg 53%
    19:00 +17°C° 0 mm 3 m/s 749 mmHg 57%
    20:00 +16°C° 0 mm 2 m/s 749 mmHg 60%
    21:00 +16°C° 0 mm 2 m/s 749 mmHg 62%
    22:00 +15°C° 0 mm 1 m/s 750 mmHg 64%
    23:00 +15°C° 0 mm 1 m/s 750 mmHg 66%

    Amanhã, 24 Janeiro, Quarta-feira

    Tempo Temperatura Precipitação Vento Pressão Humidade
    00:00 +14°C° 0 mm 1 m/s 750 mmHg 68%
    01:00 +14°C° 0 mm 1 m/s 750 mmHg 69%
    02:00 +13°C° 0 mm 1 m/s 750 mmHg 70%
    03:00 +13°C° 0 mm 1 m/s 750 mmHg 71%
    04:00 +13°C° 0 mm 1 m/s 750 mmHg 72%
    05:00 +12°C° 0 mm 1 m/s 750 mmHg 73%
    06:00 +13°C° 0 mm 1 m/s 750 mmHg 69%
    07:00 +14°C° 0 mm 1 m/s 750 mmHg 65%
    08:00 +15°C° 0 mm 1 m/s 750 mmHg 61%
    09:00 +16°C° 0 mm 1 m/s 750 mmHg 56%
    10:00 +18°C° 0 mm 1 m/s 750 mmHg 51%
    11:00 +19°C° 0 mm 1 m/s 750 mmHg 46%
    12:00 +20°C° 0 mm 1 m/s 749 mmHg 44%
    13:00 +21°C° 0 mm 1 m/s 749 mmHg 42%
    14:00 +21°C° 0 mm 1 m/s 748 mmHg 40%
    15:00 +20°C° 0 mm 2 m/s 748 mmHg 42%
    16:00 +19°C° 0 mm 2 m/s 748 mmHg 43%
    17:00 +19°C° 0 mm 2 m/s 748 mmHg 45%
    18:00 +18°C° 0 mm 2 m/s 748 mmHg 48%
    19:00 +17°C° 0 mm 2 m/s 748 mmHg 51%
    20:00 +16°C° 0 mm 2 m/s 749 mmHg 54%
    21:00 +16°C° 0 mm 1 m/s 749 mmHg 57%
    22:00 +15°C° 0 mm 1 m/s 749 mmHg 60%
    23:00 +15°C° 0 mm 1 m/s 749 mmHg 62%

    Depois de amanhã, 25 Janeiro, Quinta-feira

    Tempo Temperatura Precipitação Vento Pressão Humidade
    00:00 +14°C° 0 mm 1 m/s 749 mmHg 65%
    01:00 +14°C° 0 mm 1 m/s 749 mmHg 67%
    02:00 +13°C° 0 mm 1 m/s 749 mmHg 70%
    03:00 +13°C° 0 mm 1 m/s 748 mmHg 71%
    04:00 +13°C° 0 mm 1 m/s 748 mmHg 73%
    05:00 +12°C° 0 mm 1 m/s 748 mmHg 74%
    06:00 +13°C° 0 mm 1 m/s 748 mmHg 71%
    07:00 +14°C° 0 mm 1 m/s 748 mmHg 67%
    08:00 +14°C° 0 mm 1 m/s 749 mmHg 64%
    09:00 +15°C° 0 mm 2 m/s 748 mmHg 57%
    10:00 +17°C° 0 mm 3 m/s 748 mmHg 50%
    11:00 +18°C° 0 mm 4 m/s 748 mmHg 44%
    12:00 +17°C° 0,1 mm 5 m/s 748 mmHg 47%
    13:00 +16°C° 0,1 mm 6 m/s 747 mmHg 50%
    14:00 +16°C° 0,1 mm 7 m/s 747 mmHg 53%
    15:00 +15°C° 0,1 mm 7 m/s 747 mmHg 55%
    16:00 +15°C° 0,1 mm 6 m/s 748 mmHg 57%
    17:00 +14°C° 0,1 mm 5 m/s 748 mmHg 59%
    18:00 +13°C° 0 mm 5 m/s 748 mmHg 60%
    19:00 +12°C° 0 mm 4 m/s 749 mmHg 61%
    20:00 +12°C° 0 mm 3 m/s 750 mmHg 63%
    21:00 +11°C° 0 mm 3 m/s 750 mmHg 64%
    22:00 +11°C° 0 mm 3 m/s 750 mmHg 66%
    23:00 +11°C° 0 mm 3 m/s 750 mmHg 67%

    26 Janeiro, Sexta-feira

    Tempo Temperatura Precipitação Vento Pressão Humidade
    00:00 +10°C° 0 mm 3 m/s 750 mmHg 68%
    01:00 +10°C° 0 mm 3 m/s 750 mmHg 68%
    02:00 +10°C° 0 mm 3 m/s 750 mmHg 68%
    03:00 +9°C° 0 mm 3 m/s 750 mmHg 70%
    04:00 +9°C° 0 mm 3 m/s 750 mmHg 71%
    05:00 +8°C° 0 mm 2 m/s 750 mmHg 73%
    06:00 +8°C° 0 mm 3 m/s 751 mmHg 70%
    07:00 +9°C° 0 mm 3 m/s 751 mmHg 67%
    08:00 +9°C° 0 mm 3 m/s 751 mmHg 64%
    09:00 +10°C° 0 mm 4 m/s 751 mmHg 58%
    10:00 +10°C° 0 mm 6 m/s 751 mmHg 52%
    11:00 +11°C° 0 mm 7 m/s 751 mmHg 46%
    12:00 +11°C° 0 mm 7 m/s 751 mmHg 45%
    13:00 +12°C° 0 mm 8 m/s 750 mmHg 43%
    14:00 +12°C° 0 mm 8 m/s 750 mmHg 41%
    15:00 +12°C° 0 mm 8 m/s 750 mmHg 45%
    16:00 +11°C° 0 mm 7 m/s 751 mmHg 48%
    17:00 +10°C° 0 mm 6 m/s 751 mmHg 51%
    18:00 +10°C° 0 mm 5 m/s 752 mmHg 54%
    19:00 +11°C° 0 mm 4 m/s 752 mmHg 56%
    20:00 +10°C° 0 mm 3 m/s 753 mmHg 59%
    21:00 +10°C° 0 mm 3 m/s 753 mmHg 61%
    22:00 +10°C° 0 mm 3 m/s 753 mmHg 63%
    23:00 +9°C° 0 mm 3 m/s 753 mmHg 66%

    27 Janeiro, Sábado

    Tempo Temperatura Precipitação Vento Pressão Humidade
    00:00 +9°C° 0 mm 3 m/s 753 mmHg 67%
    01:00 +9°C° 0 mm 3 m/s 753 mmHg 69%
    02:00 +9°C° 0 mm 3 m/s 753 mmHg 70%
    03:00 +9°C° 0 mm 3 m/s 753 mmHg 72%
    04:00 +8°C° 0 mm 3 m/s 753 mmHg 74%
    05:00 +8°C° 0 mm 2 m/s 753 mmHg 76%
    06:00 +8°C° 0 mm 3 m/s 754 mmHg 74%
    07:00 +9°C° 0 mm 3 m/s 754 mmHg 72%
    08:00 +9°C° 0 mm 3 m/s 755 mmHg 71%
    09:00 +10°C° 0 mm 3 m/s 755 mmHg 66%
    10:00 +11°C° 0 mm 3 m/s 755 mmHg 62%
    11:00 +12°C° 0 mm 3 m/s 755 mmHg 57%
    12:00 +13°C° 0 mm 3 m/s 754 mmHg 55%
    13:00 +14°C° 0 mm 4 m/s 754 mmHg 54%
    14:00 +15°C° 0 mm 4 m/s 753 mmHg 52%
    15:00 +14°C° 0 mm 4 m/s 753 mmHg 54%
    16:00 +14°C° 0 mm 4 m/s 754 mmHg 57%
    17:00 +14°C° 0 mm 3 m/s 754 mmHg 59%
    18:00 +13°C° 0 mm 3 m/s 754 mmHg 64%
    19:00 +13°C° 0 mm 2 m/s 755 mmHg 68%
    20:00 +13°C° 0 mm 2 m/s 756 mmHg 72%
    21:00 +12°C° 0 mm 2 m/s 756 mmHg 74%
    22:00 +12°C° 0 mm 1 m/s 756 mmHg 76%
    23:00 +11°C° 0 mm 1 m/s 756 mmHg 79%

    28 Janeiro, Domingo

    Tempo Temperatura Precipitação Vento Pressão Humidade
    00:00 +11°C° 0 mm 1 m/s 756 mmHg 80%
    01:00 +11°C° 0 mm 1 m/s 756 mmHg 81%
    02:00 +11°C° 0 mm 1 m/s 756 mmHg 82%
    03:00 +10°C° 0 mm 1 m/s 756 mmHg 82%
    04:00 +10°C° 0 mm 1 m/s 756 mmHg 83%
    05:00 +10°C° 0 mm 1 m/s 756 mmHg 84%
    06:00 +10°C° 0 mm 2 m/s 756 mmHg 80%
    07:00 +12°C° 0 mm 2 m/s 757 mmHg 76%
    08:00 +12°C° 0 mm 2 m/s 757 mmHg 73%
    09:00 +14°C° 0 mm 2 m/s 757 mmHg 64%
    10:00 +15°C° 0 mm 2 m/s 757 mmHg 55%
    11:00 +16°C° 0 mm 2 m/s 757 mmHg 47%
    12:00 +17°C° 0 mm 3 m/s 756 mmHg 42%
    13:00 +18°C° 0 mm 3 m/s 756 mmHg 38%
    14:00 +19°C° 0 mm 3 m/s 755 mmHg 34%
    15:00 +18°C° 0 mm 3 m/s 755 mmHg 35%
    16:00 +18°C° 0 mm 3 m/s 755 mmHg 37%
    17:00 +17°C° 0 mm 3 m/s 755 mmHg 38%
    18:00 +16°C° 0 mm 3 m/s 755 mmHg 42%
    19:00 +15°C° 0 mm 2 m/s 756 mmHg 47%
    20:00 +14°C° 0 mm 2 m/s 756 mmHg 51%
    21:00 +14°C° 0 mm 2 m/s 756 mmHg 54%
    22:00 +13°C° 0 mm 2 m/s 756 mmHg 58%
    23:00 +13°C° 0 mm 2 m/s 756 mmHg 61%
    Mostrar mais